Home   Weather   Lismore   Past weeks
Flag for Australia

Past Weather in Lismore, New South Wales, Australia — Yesterday and Last 2 Weeks

Now
51 °F

Cool.


Feels Like: 51 °F
Forecast: 78 / 55 °F
Wind: No wind

Location: Casino Airport Aws

Current Time: Oct 22, 2019 at 4:53:27 am

Latest Report: Oct 22, 2019 at 3:00 am


Visibility: N/A

Pressure: 30.26 "Hg

Humidity: 90%

Dew Point: 47 °F

Location of LismoreLocation

Past Weather in Lismore — Graph

°F

Lismore Temperature Yesterday

Maximum temperature yesterday: 76 °F (at 1:00 pm)
Minimum temperature yesterday: 54 °F (at 6:00 am)
Average temperature yesterday: 66 °F

High & Low Weather Summary for the Past Weeks

 TemperatureHumidityPressure
High103 °F (Oct 8, 3:00 pm)93% (Oct 7, 6:00 am)30.30 "Hg (Oct 7, 6:00 am)
Low49 °F (Oct 13, 6:00 am)9% (Oct 8, 3:00 pm)29.63 "Hg (Oct 17, 4:00 pm)
Average68 °F63%29.99 "Hg
* Reported Oct 7 3:00 am — Oct 22 3:00 am, Lismore. Weather by CustomWeather, © 2019

Note: Actual official high and low records may vary slightly from our data, if they occured in-between our weather recording intervals... More about our weather records

Advertising

Lismore Weather History for the Previous 24 Hours

Scroll right to see more
 ConditionsComfort  
Time TempWeatherWind HumidityBarometerVisibility
3:00 am
Tue, Oct 22
51 °FCool.No wind90%30.26 "HgN/A
1:00 am53 °FCool.3 mph87%30.28 "HgN/A
12:00 am54 °FCool.No wind85%30.29 "HgN/A
10:00 pm
Mon, Oct 21
57 °FCool.3 mph78%30.30 "HgN/A
9:00 pm58 °FCool.No wind73%30.29 "HgN/A
7:00 pm65 °FMild.10 mph56%30.26 "HgN/A
6:00 pm70 °FMild.14 mph45%30.24 "HgN/A
4:00 pm75 °FMild.15 mph37%30.21 "HgN/A
3:00 pm76 °FMild.16 mph38%30.22 "HgN/A
1:00 pm76 °FMild.7 mph34%30.25 "HgN/A
12:00 pm73 °FMild.10 mph35%30.27 "HgN/A
10:00 am71 °FMild.12 mph42%30.30 "HgN/A
9:00 am71 °FMild.10 mph47%30.30 "HgN/A
7:00 am57 °FCool.1 mph85%30.27 "HgN/A
6:00 am54 °FCool.1 mph77%30.24 "HgN/A
4:00 am62 °FCool.6 mph67%30.22 "HgN/A
Weather by CustomWeather, © 2019

See weather overview